Theta_e
311 310 310 310 309 309 309 309 310 310 310 310 309 310 309 309 309 309 308 308 307 308 312 314 315 316 310 307 306 305 306 306 307 309 309 311 313 314 315 315 314 345 350 347 350
309 309 309 309 308 308 308 308 308 309 309 309 309 309 309 308 308 309 305 306 308 308 312 314 312 308 308 306 304 305 304 305 307 308 311 311 311 312 313 313 314 330 348 349 350
309 309 309 309 308 308 308 308 308 308 308 308 309 308 308 308 305 306 317 317 317 315 316 314 312 307 307 303 303 304 307 306 309 310 309 311 311 311 312 311 313 316 349 348 349
308 308 308 309 308 308 308 307 308 308 308 307 307 307 307 307 305 312 322 317 311 318 318 315 309 308 307 305 303 305 304 307 307 309 311 311 312 311 310 311 312 326 344 349 350
306 306 306 306 306 306 306 306 306 306 307 307 307 307 308 308 308 308 320 309 311 319 317 315 311 308 308 306 306 305 307 305 306 306 307 307 309 310 310 311 311 311 323 347 349
304 304 304 304 304 304 304 302 303 305 305 306 307 307 309 308 306 306 306 306 313 318 316 316 312 308 307 306 307 307 306 308 307 307 307 308 309 309 310 311 311 311 319 342 348
304 304 304 304 304 304 304 304 303 304 305 306 306 308 308 307 306 306 307 308 316 318 316 317 314 311 308 309 306 307 308 307 306 307 308 307 308 308 310 310 310 316 340 345 346
303 303 303 301 300 303 305 304 302 305 306 306 307 307 309 307 306 307 306 306 308 310 308 312 316 313 308 309 310 308 306 307 306 306 307 308 309 309 309 310 311 311 336 344 343
303 302 302 303 301 303 304 304 304 305 307 308 307 308 307 307 309 308 308 307 307 307 307 309 316 316 313 312 310 310 312 307 310 306 308 307 308 309 309 309 311 310 330 342 340
302 302 301 302 302 303 303 304 302 307 307 307 308 309 306 308 310 312 313 308 308 309 308 309 315 316 315 313 320 311 314 314 311 309 307 307 308 310 310 310 310 309 311 337 339
302 302 301 302 302 303 303 302 298 301 306 307 308 309 308 310 311 312 312 309 310 310 309 311 320 321 319 318 315 310 312 312 311 312 310 307 307 307 307 308 308 308 309 309 333
302 302 302 302 303 302 302 301 302 302 302 302 303 305 307 306 308 307 311 313 313 316 309 315 321 318 317 317 317 312 314 313 312 311 309 310 309 308 308 308 307 308 308 309 311
300 302 303 304 302 302 301 301 301 301 301 302 303 304 305 306 307 308 309 314 315 318 309 314 317 317 316 316 315 315 315 312 313 312 311 312 310 311 311 308 308 308 308 309 309
301 302 304 303 303 302 302 303 301 301 301 302 306 308 309 311 312 310 309 310 315 317 313 313 314 317 318 318 315 315 316 313 313 311 312 310 310 311 311 310 310 308 307 307 308
302 303 303 302 303 302 304 303 303 302 305 302 310 308 313 314 313 315 314 312 313 314 319 319 318 319 319 318 317 316 317 316 316 311 311 311 310 310 311 314 312 315 319 321 319
302 302 302 303 302 304 304 303 302 309 307 305 307 310 311 310 312 316 317 313 313 312 316 316 318 318 320 318 317 316 317 316 310 308 311 309 310 309 312 324 320 320 325 325 324
302 301 302 301 302 302 302 304 309 308 304 306 309 311 311 312 313 315 317 316 317 317 317 320 321 319 320 320 318 317 317 313 312 311 313 308 310 310 325 324 323 322 324 323 324
301 301 303 303 302 302 303 308 309 306 306 309 310 310 312 313 316 317 313 318 315 319 317 321 324 322 320 320 320 317 314 310 314 312 310 310 311 316 326 325 326 324 324 324 324
302 301 302 302 302 305 305 306 309 312 311 312 311 312 312 311 314 317 314 317 318 320 323 325 323 320 320 318 318 319 317 309 310 311 311 316 327 328 327 327 328 325 325 324 322
302 300 300 302 302 304 303 305 311 307 310 312 313 311 313 312 315 317 315 317 318 319 322 323 327 321 321 319 319 318 314 315 312 316 318 329 329 330 331 331 329 326 325 325 323
301 297 301 303 302 301 305 307 306 306 309 310 314 315 312 314 315 316 316 318 317 320 320 324 324 324 321 324 323 318 317 313 310 315 323 329 329 325 328 327 328 326 325 321 318
301 299 302 302 303 303 306 305 306 308 308 310 310 312 313 311 314 316 317 319 320 320 323 323 323 324 322 322 320 318 315 311 314 323 320 321 332 326 325 323 324 323 317 313 310
300 301 302 302 305 305 305 306 307 308 310 311 310 308 311 316 317 316 316 320 320 321 322 324 325 326 326 323 322 321 317 312 314 319 323 323 329 325 326 326 323 317 313 311 309
300 301 299 298 301 305 306 306 308 307 309 309 312 311 310 314 314 317 318 322 321 322 322 323 322 319 323 322 321 321 318 314 318 319 323 323 331 331 328 324 320 314 312 310 309
299 298 303 305 303 304 305 306 307 309 308 309 312 312 314 314 317 318 317 317 320 318 319 325 325 325 322 321 320 317 317 315 317 319 320 327 330 330 326 324 316 313 312 310 308
303 303 303 303 303 303 306 306 306 309 309 311 311 311 313 316 316 317 316 318 322 320 320 321 324 324 326 325 324 320 318 316 318 325 327 328 331 325 322 315 314 313 311 308 307
302 302 302 304 304 305 306 307 307 307 309 309 310 312 313 314 313 313 314 314 316 320 322 322 323 320 327 327 326 327 328 323 326 326 326 329 328 325 318 316 314 311 310 307 305
Wind_Speed
21 21 22 22 22 23 23 22 22 22 21 20 19 19 20 22 25 27 13 19 13 9 11 5 6 12 6 4 5 4 2 4 6 6 5 2 2 1 1 2 2 3 4 4 25
21 21 21 21 22 23 23 22 22 22 21 20 20 19 18 21 28 24 32 22 16 13 17 14 6 9 4 5 4 5 4 10 7 6 3 2 2 1 2 5 3 3 4 7 19
22 23 23 23 24 24 24 23 23 22 21 19 20 19 16 18 7 8 10 8 3 14 11 11 11 6 5 3 5 7 7 6 5 5 8 5 2 5 4 5 5 4 4 8 9
24 24 24 25 26 26 26 25 24 23 23 20 18 16 12 8 7 3 12 5 7 11 14 12 6 7 7 8 6 4 7 4 7 6 5 5 3 6 6 7 8 4 5 9 12
25 26 27 27 28 28 29 28 26 26 24 21 18 14 7 7 12 12 12 21 9 20 19 9 9 8 9 7 5 4 3 6 12 8 7 6 11 9 2 7 11 9 8 13 14
26 27 28 29 30 31 33 35 35 31 27 23 18 13 9 19 22 25 19 12 9 23 18 9 9 6 6 6 9 6 11 10 5 6 5 7 9 6 3 5 8 8 12 14 16
28 29 30 31 31 31 34 39 42 37 31 25 20 16 16 25 18 15 9 5 7 16 7 22 6 9 8 3 8 4 3 5 5 8 8 3 14 7 9 9 11 7 9 7 14
29 31 32 35 37 38 36 39 46 42 36 28 19 17 14 12 30 45 42 34 21 11 1 5 15 2 4 2 3 5 6 9 6 9 7 10 8 3 7 7 11 11 8 8 9
31 33 33 34 40 42 42 46 49 37 25 17 11 11 10 9 15 25 31 20 27 36 14 12 7 5 2 4 3 4 4 5 2 10 7 9 4 12 9 9 12 9 7 8 7
32 34 36 36 41 43 45 44 31 4 8 12 1 5 7 6 7 6 6 26 8 10 9 7 5 7 8 8 16 6 6 4 6 8 10 6 3 8 3 5 9 8 7 8 8
34 35 37 37 41 43 45 16 5 3 3 8 10 10 2 8 7 7 7 17 5 7 14 11 10 21 26 22 13 12 4 9 5 7 6 6 6 10 8 4 8 9 8 9 10
36 36 38 38 38 41 12 3 4 4 14 17 27 24 35 29 15 18 22 7 8 8 13 7 26 19 10 14 15 13 6 4 2 4 5 4 5 8 4 6 8 11 9 10 6
43 42 42 39 41 10 13 10 7 11 5 11 10 8 8 12 19 30 19 7 6 10 24 18 5 17 16 17 19 19 14 5 5 2 1 2 5 5 5 5 6 7 6 7 11
43 43 42 40 13 14 10 6 8 9 4 9 4 4 1 4 6 14 21 20 12 18 19 16 14 24 22 21 17 18 10 6 6 4 2 2 4 4 3 6 6 9 8 7 8
45 45 43 22 10 6 6 13 16 4 5 5 2 9 2 6 11 0 10 20 26 17 15 12 12 16 22 22 19 7 15 11 4 4 2 2 4 7 1 3 7 3 8 5 6
47 48 35 10 8 16 15 15 2 2 6 7 1 8 9 14 2 10 9 12 15 19 15 12 12 15 19 19 17 13 13 8 4 4 4 6 6 5 1 3 7 4 5 6 6
47 40 15 9 8 25 20 5 1 3 8 7 10 9 20 8 6 4 8 11 10 15 20 17 18 15 16 16 17 18 16 4 1 2 5 9 6 5 3 4 5 2 4 7 8
46 28 9 14 23 20 3 2 1 5 13 13 13 21 9 7 1 3 9 8 11 6 14 16 14 16 17 20 13 13 11 5 6 5 4 1 7 4 2 3 4 5 7 12 13
42 24 12 24 30 4 2 3 3 5 9 11 16 7 4 6 5 4 2 3 12 4 7 12 8 17 13 10 15 23 10 8 6 1 6 4 2 2 4 5 6 8 12 14 14
29 12 10 34 24 2 4 4 4 12 14 7 6 5 5 6 7 7 5 3 4 2 4 5 5 18 12 12 9 23 12 9 1 5 5 3 5 6 5 7 8 10 15 15 14
10 4 16 35 8 4 4 5 14 17 17 5 3 6 9 11 5 5 2 3 8 5 10 3 4 1 14 6 18 10 12 5 5 4 5 5 3 4 6 6 12 12 12 13 13
8 3 18 28 6 2 7 13 17 14 15 5 6 6 5 7 6 4 4 6 9 0 3 3 2 2 5 7 12 4 13 6 5 2 2 3 3 3 7 7 9 11 10 9 12
6 3 8 11 7 10 8 12 8 18 17 4 4 3 7 4 4 5 5 6 12 7 5 4 2 5 9 7 7 7 5 5 5 4 5 5 3 4 7 7 7 15 13 12 13
4 5 4 4 1 9 14 9 17 18 13 12 6 6 6 3 7 5 10 5 4 5 8 3 3 4 4 7 10 13 13 8 6 4 5 2 11 9 11 12 10 11 14 13 12
3 3 1 6 8 12 15 8 22 15 4 10 5 17 14 4 7 5 7 10 7 8 4 4 3 1 10 16 16 11 15 13 8 6 7 9 15 18 14 15 12 13 14 14 12
3 3 2 9 10 12 8 10 20 21 8 10 9 22 15 4 5 7 7 4 6 6 5 3 2 1 5 10 9 8 13 15 7 8 9 16 10 11 11 16 15 14 15 14 12
4 5 3 6 5 8 7 14 24 22 8 12 19 16 11 9 15 14 7 8 5 6 5 5 3 4 3 3 5 6 2 4 5 1 18 8 10 19 17 16 15 14 15 16 14
Wind_Direction
337 336 336 336 335 332 329 327 325 325 321 319 319 316 314 313 308 301 252 244 219 254 218 167 148 161 144 168 163 126 152 206 209 175 224 286 181 218 346 265 300 342 291 295 146
341 338 336 334 330 330 330 330 327 325 322 316 316 318 315 319 309 273 276 264 244 215 198 202 155 139 160 187 186 162 184 208 202 177 175 252 237 269 264 325 310 303 41 116 146
342 337 332 330 327 328 328 327 325 323 318 314 310 315 317 327 315 249 93 91 133 202 205 199 181 146 173 151 201 201 225 176 200 175 196 242 272 212 176 261 205 256 229 162 170
341 338 333 329 327 326 323 321 319 313 309 310 309 310 311 319 287 102 143 15 323 193 180 159 155 165 193 194 211 228 212 183 207 210 191 221 231 278 173 231 247 222 211 177 191
343 340 335 331 328 325 322 318 314 307 306 304 303 300 296 236 248 225 233 292 308 182 192 179 162 161 179 191 186 205 220 210 230 229 239 271 255 258 247 267 261 263 214 209 206
343 339 336 334 331 327 325 322 316 309 305 299 292 281 242 248 257 267 276 279 226 182 186 202 201 178 171 202 184 205 195 226 233 227 229 221 253 181 290 330 269 257 246 213 209
342 338 334 330 326 322 321 318 313 308 302 293 282 262 240 241 257 267 250 269 233 187 178 206 205 173 148 194 210 231 261 271 206 219 248 173 275 214 226 246 267 255 228 220 217
337 335 333 333 333 326 321 317 312 306 297 282 266 247 255 255 260 258 257 261 247 229 271 237 232 298 199 269 50 147 160 233 198 177 239 157 257 255 225 203 242 244 207 218 224
333 331 329 327 328 325 324 319 309 305 296 263 224 197 259 284 247 258 242 222 223 241 249 257 182 211 211 113 4 230 187 177 180 178 194 177 226 253 220 202 231 237 197 214 231
333 331 329 327 326 325 324 318 316 358 73 123 174 187 261 235 214 230 231 208 213 192 195 199 194 183 206 188 216 190 157 182 173 203 186 177 240 285 272 185 231 226 215 198 212
333 332 329 329 326 323 324 328 11 323 289 212 201 211 301 212 205 202 139 145 221 178 183 179 187 205 198 206 218 192 155 185 187 195 149 208 204 244 259 208 244 250 229 227 214
334 333 330 330 324 325 338 307 260 314 292 252 249 251 247 256 274 254 149 148 178 198 183 167 218 200 189 192 204 232 192 188 252 145 142 186 228 233 228 221 201 220 221 218 219
337 335 332 330 326 330 322 286 322 344 271 278 223 230 235 207 237 255 218 201 191 191 190 198 240 178 190 185 194 211 207 168 131 63 52 115 301 238 243 219 214 234 218 203 214
336 333 329 333 334 329 296 344 323 338 286 274 227 271 163 218 225 236 221 212 215 198 195 223 219 181 189 203 185 205 175 157 149 94 187 115 263 278 237 258 219 225 211 219 235
334 331 332 336 280 294 300 320 329 127 309 321 39 4 238 174 273 203 187 198 213 202 170 207 181 198 200 199 183 198 162 179 143 134 103 284 81 265 340 237 228 60 75 54 337
334 336 338 345 297 316 312 320 49 240 269 304 51 343 305 305 265 328 249 180 203 198 217 219 178 196 197 197 180 156 160 145 73 107 255 194 141 280 93 297 309 1 37 43 14
336 343 340 315 290 320 313 310 249 214 320 320 326 342 317 297 288 26 339 172 164 174 204 196 223 201 166 179 195 162 154 119 121 188 216 179 144 231 320 324 251 293 46 74 68
337 343 349 337 331 322 347 292 277 282 294 323 317 314 288 330 225 117 336 196 225 206 168 188 199 207 185 185 174 183 162 148 154 153 155 191 185 264 35 42 66 87 86 77 71
339 347 6 346 346 312 31 353 303 311 316 309 310 290 284 328 314 295 149 277 209 200 164 187 217 179 190 158 161 187 195 152 106 168 115 166 63 61 71 63 74 87 87 83 84
332 332 323 350 346 58 62 306 284 315 305 301 296 302 305 320 318 341 356 227 296 254 6 222 129 177 191 164 165 181 156 159 18 147 126 209 167 170 166 139 116 106 99 91 84
340 360 356 351 356 40 29 288 303 310 312 289 300 284 278 304 303 295 240 225 201 199 250 316 113 340 176 185 170 148 170 136 136 129 142 139 218 200 156 153 135 118 105 100 92
343 349 347 352 33 354 341 326 308 310 322 272 273 257 264 301 307 314 308 320 181 4 169 157 125 114 177 174 186 134 169 120 133 172 89 115 155 94 126 127 135 112 95 89 90
338 289 327 355 17 354 330 320 318 326 327 324 290 333 295 289 289 248 283 323 155 144 182 199 123 129 117 89 210 212 181 142 112 104 185 126 183 124 126 119 131 116 106 101 101
357 337 323 13 278 341 334 333 335 334 320 328 292 313 305 275 222 293 323 326 49 21 214 199 143 188 178 129 135 189 182 166 136 120 159 192 136 152 141 139 120 108 109 104 93
32 335 325 315 337 328 326 302 335 343 313 326 314 337 344 326 353 355 350 333 45 15 351 207 167 205 130 137 148 152 172 176 171 159 149 172 154 164 151 141 124 119 113 102 92
359 344 299 292 295 326 330 332 333 329 318 318 322 327 325 318 343 311 325 330 18 26 311 226 107 73 81 100 118 143 169 178 163 96 68 115 85 120 105 113 122 123 113 99 88
329 264 252 302 304 328 337 324 322 323 301 306 316 317 314 337 314 297 275 276 274 315 341 19 57 63 39 30 117 78 27 128 107 124 140 145 153 132 126 122 125 125 113 109 102